Flag for Spain Weather past 2 weeks in Santa Cruz de Tenerife, Canary Islands, Spain

Now
57 °F

Partly sunny.


Feels Like: 55 °F
Forecast: N/A
Wind: 9 mph from Northwest

Location: Tenerife / Los Rodeos

Current Time: Jan 28, 2015 at 4:47:20 PM

Latest Report: Jan 28, 2015 at 4:00 PM


Visibility: N/A

Pressure: 30.33 "Hg

Humidity: 72%

Dew point: 48 °F

Location of Santa Cruz de TenerifeLocation

Historic Weather in Santa Cruz de Tenerife — Graph

°F

Santa Cruz de Tenerife temperature yesterday

Maximum temperature yesterday: 59 °F (at 1:00 PM)
Minimum temperature yesterday: 48 °F (at 6:00 AM)
Average temperature yesterday: 54 °F

Past Weeks' High & Low Weather Summary

 TemperatureHumidityPressure
High63 °F (Jan 15, 12:00 PM)100% (Jan 15, 6:30 PM)30.45 "Hg (Jan 15, 6:30 PM)
Low48 °F (Jan 17, 7:30 AM)63% (Jan 17, 1:00 PM)30.15 "Hg (Jan 20, 2:00 PM)
Average53 °F86%30.30 "Hg
* Reported Jan 13 4:00 PM — Jan 28 4:00 PM, Santa Cruz de Tenerife, Weather by CustomWeather, © 2014

Note: Actual official high and low records may vary slightly from our data, if they occured in-between our weather recording intervals... More about our weather records

Advertising

Santa Cruz de Tenerife weather history for previous 24 hours

 ConditionsComfort  
Time TempWeatherWind HumidityBarometerVisibility
4:00 PM
Jan 28
57 °FPartly sunny.9 mph72%30.33 "HgN/A
3:30 PM55 °FScattered clouds.8 mph72%30.33 "HgN/A
3:00 PM57 °FScattered clouds.6 mph67%30.33 "HgN/A
2:30 PM57 °FPassing clouds.7 mph63%30.33 "HgN/A
2:00 PM57 °FPassing clouds.7 mph63%30.36 "HgN/A
1:30 PM57 °FScattered clouds.9 mph67%30.36 "HgN/A
1:00 PM57 °FScattered clouds.7 mph67%30.39 "HgN/A
12:30 PM55 °FScattered clouds.8 mph77%30.39 "HgN/A
12:00 PM57 °FScattered clouds.6 mph63%30.42 "HgN/A
11:30 AM55 °FPassing clouds.9 mph72%30.42 "HgN/A
11:00 AM55 °FScattered clouds.8 mph67%30.42 "HgN/A
10:30 AM54 °FPartly sunny.6 mph77%30.42 "HgN/A
10:00 AM54 °FPartly sunny.6 mph72%30.42 "HgN/A
9:30 AM54 °FScattered clouds.7 mph72%30.39 "HgN/A
9:00 AM52 °FScattered clouds.9 mph77%30.39 "HgN/A
8:30 AM52 °FScattered clouds.9 mph77%30.39 "HgN/A
8:00 AM52 °FScattered clouds.9 mph82%30.39 "HgN/A
7:30 AM50 °FPassing clouds.7 mph94%30.39 "HgN/A
7:00 AM50 °FPassing clouds.8 mph88%30.36 "HgN/A
6:30 AM50 °FPassing clouds.9 mph82%30.36 "HgN/A
6:00 AM50 °FPassing clouds.8 mph88%30.36 "HgN/A
11:00 PM
Jan 27
52 °FPassing clouds.10 mph88%30.42 "HgN/A
10:30 PM52 °FPassing clouds.10 mph88%30.42 "HgN/A
10:00 PM52 °FPassing clouds.12 mph82%30.42 "HgN/A
9:30 PM50 °FPassing clouds.9 mph88%30.42 "HgN/A
9:00 PM50 °FPassing clouds.9 mph94%30.42 "HgN/A
8:30 PM52 °FPassing clouds.10 mph88%30.39 "HgN/A
8:00 PM52 °FPassing clouds.9 mph88%30.39 "HgN/A
7:30 PM52 °FPassing clouds.8 mph88%30.39 "HgN/A
7:00 PM54 °FPassing clouds.9 mph88%30.39 "HgN/A
6:30 PM54 °FScattered clouds.9 mph88%30.39 "HgN/A
6:00 PM54 °FScattered clouds.7 mph88%30.39 "HgN/A
5:30 PM55 °FScattered clouds.8 mph82%30.39 "HgN/A
5:00 PM55 °FScattered clouds.9 mph82%30.39 "HgN/A
4:30 PM57 °FScattered clouds.10 mph77%30.39 "HgN/A
4:00 PM57 °FScattered clouds.7 mph77%30.39 "HgN/A
Weather by CustomWeather, © 2014

See weather overviewHow to use our weather pages